• In Germany
  • List of Countries
  • For 7 days
  • Water Temperature
  • Satellite Maps
  • Weather Map
  • Weather Widgets
  • user-avatar
    Login

    Hourly Weather Ali Bayramli

    Today, 25 May, Thursday

    Time Temperature Precipitation Wind Pressure Humidity
    00:00 +19°C° 0 mm 3 mps 759 mmHg 66%
    01:00 +18°C° 0 mm 2 mps 759 mmHg 67%
    02:00 +18°C° 0 mm 2 mps 759 mmHg 69%
    03:00 +17°C° 0 mm 2 mps 759 mmHg 72%
    04:00 +18°C° 0 mm 2 mps 759 mmHg 69%
    05:00 +18°C° 0 mm 2 mps 759 mmHg 67%
    06:00 +19°C° 0 mm 2 mps 759 mmHg 64%
    07:00 +20°C° 0 mm 2 mps 760 mmHg 58%
    08:00 +23°C° 0 mm 2 mps 760 mmHg 51%
    09:00 +25°C° 0 mm 3 mps 760 mmHg 46%
    10:00 +26°C° 0 mm 3 mps 760 mmHg 44%
    11:00 +26°C° 0 mm 3 mps 760 mmHg 42%
    12:00 +27°C° 0 mm 3 mps 759 mmHg 39%
    13:00 +27°C° 0 mm 4 mps 759 mmHg 41%
    14:00 +27°C° 0 mm 5 mps 759 mmHg 44%
    15:00 +27°C° 0 mm 5 mps 759 mmHg 46%
    16:00 +26°C° 0 mm 6 mps 759 mmHg 51%
    17:00 +23°C° 0 mm 6 mps 759 mmHg 56%
    18:00 +22°C° 0 mm 6 mps 759 mmHg 62%
    19:00 +21°C° 0 mm 5 mps 760 mmHg 64%
    20:00 +20°C° 0 mm 5 mps 760 mmHg 66%
    21:00 +19°C° 0 mm 4 mps 760 mmHg 68%
    22:00 +19°C° 0 mm 3 mps 760 mmHg 68%
    23:00 +18°C° 0 mm 3 mps 761 mmHg 69%

    Tomorrow, 26 May, Friday

    Time Temperature Precipitation Wind Pressure Humidity
    00:00 +18°C° 0 mm 2 mps 761 mmHg 70%
    01:00 +18°C° 0 mm 2 mps 761 mmHg 71%
    02:00 +18°C° 0 mm 1 mps 761 mmHg 72%
    03:00 +18°C° 0 mm 1 mps 760 mmHg 73%
    04:00 +18°C° 0 mm 1 mps 761 mmHg 71%
    05:00 +19°C° 0 mm 1 mps 761 mmHg 69%
    06:00 +20°C° 0 mm 1 mps 761 mmHg 67%
    07:00 +21°C° 0 mm 1 mps 761 mmHg 63%
    08:00 +22°C° 0 mm 1 mps 761 mmHg 59%
    09:00 +23°C° 0 mm 1 mps 761 mmHg 55%
    10:00 +24°C° 0 mm 2 mps 760 mmHg 52%
    11:00 +26°C° 0 mm 3 mps 760 mmHg 49%
    12:00 +27°C° 0 mm 3 mps 760 mmHg 46%
    13:00 +27°C° 0 mm 4 mps 759 mmHg 46%
    14:00 +27°C° 0 mm 5 mps 759 mmHg 46%
    15:00 +27°C° 0 mm 5 mps 758 mmHg 46%
    16:00 +26°C° 0 mm 5 mps 758 mmHg 50%
    17:00 +25°C° 0 mm 5 mps 758 mmHg 53%
    18:00 +23°C° 0 mm 5 mps 758 mmHg 57%
    19:00 +22°C° 0 mm 5 mps 758 mmHg 61%
    20:00 +20°C° 0 mm 4 mps 759 mmHg 66%
    21:00 +19°C° 0 mm 3 mps 759 mmHg 70%
    22:00 +19°C° 0 mm 3 mps 759 mmHg 72%
    23:00 +18°C° 0 mm 2 mps 758 mmHg 74%

    Day after tomorrow, 27 May, Saturday

    Time Temperature Precipitation Wind Pressure Humidity
    00:00 +18°C° 0 mm 2 mps 758 mmHg 76%
    01:00 +19°C° 0 mm 1 mps 758 mmHg 77%
    02:00 +18°C° 0 mm 1 mps 758 mmHg 79%
    03:00 +18°C° 0 mm 1 mps 758 mmHg 80%
    04:00 +19°C° 0 mm 1 mps 758 mmHg 77%
    05:00 +19°C° 0 mm 1 mps 758 mmHg 74%
    06:00 +20°C° 0 mm 1 mps 758 mmHg 70%
    07:00 +21°C° 0 mm 1 mps 758 mmHg 64%
    08:00 +23°C° 0 mm 1 mps 757 mmHg 58%
    09:00 +24°C° 0 mm 1 mps 757 mmHg 51%
    10:00 +26°C° 0 mm 2 mps 757 mmHg 47%
    11:00 +27°C° 0 mm 2 mps 756 mmHg 44%
    12:00 +28°C° 0 mm 2 mps 756 mmHg 40%
    13:00 +29°C° 0 mm 3 mps 755 mmHg 39%
    14:00 +29°C° 0 mm 3 mps 755 mmHg 38%
    15:00 +30°C° 0 mm 4 mps 754 mmHg 37%
    16:00 +28°C° 0.2 mm 4 mps 754 mmHg 42%
    17:00 +27°C° 0.2 mm 4 mps 754 mmHg 46%
    18:00 +26°C° 0.2 mm 4 mps 754 mmHg 50%
    19:00 +24°C° 0.2 mm 3 mps 754 mmHg 56%
    20:00 +23°C° 0.2 mm 2 mps 755 mmHg 61%
    21:00 +22°C° 0.2 mm 1 mps 755 mmHg 66%
    22:00 +21°C° 0 mm 1 mps 755 mmHg 68%
    23:00 +21°C° 0 mm 1 mps 755 mmHg 69%

    28 May, Sunday

    Time Temperature Precipitation Wind Pressure Humidity
    00:00 +20°C° 0 mm 1 mps 755 mmHg 70%
    01:00 +20°C° 0 mm 1 mps 755 mmHg 71%
    02:00 +20°C° 0 mm 1 mps 755 mmHg 72%
    03:00 +19°C° 0 mm 1 mps 755 mmHg 72%
    04:00 +20°C° 0 mm 1 mps 755 mmHg 68%
    05:00 +21°C° 0 mm 1 mps 755 mmHg 65%
    06:00 +22°C° 0 mm 1 mps 755 mmHg 61%
    07:00 +24°C° 0 mm 1 mps 756 mmHg 55%
    08:00 +25°C° 0 mm 1 mps 756 mmHg 49%
    09:00 +27°C° 0 mm 2 mps 756 mmHg 43%
    10:00 +29°C° 0 mm 2 mps 755 mmHg 38%
    11:00 +30°C° 0 mm 2 mps 755 mmHg 34%
    12:00 +33°C° 0 mm 3 mps 755 mmHg 29%
    13:00 +33°C° 0 mm 3 mps 754 mmHg 30%
    14:00 +33°C° 0 mm 4 mps 754 mmHg 31%
    15:00 +33°C° 0 mm 4 mps 754 mmHg 32%
    16:00 +30°C° 0 mm 5 mps 754 mmHg 38%
    17:00 +28°C° 0 mm 5 mps 754 mmHg 43%
    18:00 +26°C° 0 mm 6 mps 754 mmHg 49%
    19:00 +25°C° 0 mm 5 mps 755 mmHg 51%
    20:00 +23°C° 0 mm 4 mps 755 mmHg 52%
    21:00 +22°C° 0 mm 3 mps 756 mmHg 53%
    22:00 +21°C° 0 mm 2 mps 756 mmHg 54%
    23:00 +21°C° 0 mm 2 mps 756 mmHg 55%

    29 May, Monday

    Time Temperature Precipitation Wind Pressure Humidity
    00:00 +22°C° 0 mm 1 mps 757 mmHg 56%
    01:00 +20°C° 0 mm 2 mps 757 mmHg 58%
    02:00 +20°C° 0 mm 2 mps 758 mmHg 59%
    03:00 +19°C° 0 mm 2 mps 758 mmHg 61%
    04:00 +20°C° 0 mm 3 mps 759 mmHg 60%
    05:00 +21°C° 0 mm 3 mps 760 mmHg 59%
    06:00 +21°C° 0 mm 3 mps 760 mmHg 58%
    07:00 +22°C° 0 mm 5 mps 761 mmHg 54%
    08:00 +24°C° 0 mm 6 mps 761 mmHg 50%
    09:00 +26°C° 0 mm 7 mps 762 mmHg 46%
    10:00 +26°C° 0 mm 8 mps 762 mmHg 44%
    11:00 +26°C° 0 mm 9 mps 762 mmHg 42%
    12:00 +27°C° 0 mm 10 mps 763 mmHg 40%
    13:00 +26°C° 0 mm 10 mps 763 mmHg 41%
    14:00 +24°C° 0 mm 10 mps 763 mmHg 41%
    15:00 +23°C° 0 mm 11 mps 763 mmHg 41%
    16:00 +22°C° 0 mm 10 mps 763 mmHg 43%
    17:00 +21°C° 0 mm 10 mps 764 mmHg 45%
    18:00 +18°C° 0 mm 9 mps 764 mmHg 47%
    19:00 +17°C° 0 mm 8 mps 764 mmHg 49%
    20:00 +17°C° 0 mm 8 mps 765 mmHg 51%
    21:00 +16°C° 0 mm 7 mps 765 mmHg 53%
    22:00 +15°C° 0 mm 6 mps 765 mmHg 54%
    23:00 +15°C° 0 mm 5 mps 765 mmHg 55%

    30 May, Tuesday

    Time Temperature Precipitation Wind Pressure Humidity
    00:00 +15°C° 0 mm 4 mps 765 mmHg 56%
    01:00 +16°C° 0 mm 3 mps 765 mmHg 58%
    02:00 +15°C° 0 mm 2 mps 765 mmHg 60%
    03:00 +15°C° 0 mm 2 mps 765 mmHg 61%
    04:00 +15°C° 0 mm 1 mps 765 mmHg 59%
    05:00 +16°C° 0 mm 1 mps 765 mmHg 58%
    06:00 +16°C° 0 mm 1 mps 765 mmHg 56%
    07:00 +19°C° 0 mm 1 mps 765 mmHg 51%
    08:00 +19°C° 0 mm 2 mps 765 mmHg 47%
    09:00 +21°C° 0 mm 2 mps 765 mmHg 43%
    10:00 +23°C° 0 mm 2 mps 764 mmHg 40%
    11:00 +24°C° 0 mm 3 mps 764 mmHg 38%
    12:00 +25°C° 0 mm 3 mps 763 mmHg 36%
    13:00 +25°C° 0 mm 4 mps 762 mmHg 37%
    14:00 +26°C° 0 mm 4 mps 762 mmHg 37%
    15:00 +26°C° 0 mm 5 mps 761 mmHg 37%
    16:00 +25°C° 0 mm 5 mps 761 mmHg 41%
    17:00 +23°C° 0 mm 5 mps 760 mmHg 45%
    18:00 +22°C° 0 mm 5 mps 760 mmHg 48%
    19:00 +21°C° 0 mm 5 mps 760 mmHg 53%
    20:00 +20°C° 0 mm 4 mps 760 mmHg 59%
    21:00 +19°C° 0 mm 3 mps 760 mmHg 64%
    22:00 +18°C° 0 mm 3 mps 760 mmHg 67%
    23:00 +18°C° 0 mm 2 mps 759 mmHg 69%
    Show more